| time (UTC) | temp C | wind direction | speed KPH | gust KPH | rain 1hr cm | rain 24hr cm | rain mn cm | humidity % | barometer mb |
| 20260507231704 | 10 | 77 | 3.2 | 11.3 | 0.00 | 0.08 | 0.08 | 58 | 1010.8 |
| 20260507231201 | 10 | 75 | 3.2 | 8.0 | 0.00 | 0.08 | 0.08 | 60 | 1010.8 |
| 20260507230657 | 10 | 94 | 0.0 | 4.8 | 0.00 | 0.08 | 0.08 | 61 | 1010.5 |
| 20260507230155 | 10 | 17 | 0.0 | 4.8 | 0.00 | 0.08 | 0.08 | 60 | 1010.6 |
| 20260507225654 | 10 | 119 | 8.0 | 8.0 | 0.00 | 0.08 | 0.08 | 58 | 1010.7 |
| 20260507225151 | 10 | 97 | 1.6 | 6.4 | 0.00 | 0.08 | 0.08 | 57 | 1010.6 |
| 20260507224647 | 10 | 122 | 0.0 | 11.3 | 0.00 | 0.08 | 0.08 | 56 | 1010.7 |
| 20260507224144 | 11 | 68 | 1.6 | 6.4 | 0.00 | 0.08 | 0.08 | 58 | 1010.6 |
| 20260507223640 | 11 | 133 | 1.6 | 11.3 | 0.00 | 0.08 | 0.08 | 59 | 1010.6 |
| 20260507223137 | 11 | 53 | 3.2 | 4.8 | 0.00 | 0.08 | 0.08 | 58 | 1010.3 |
| 20260507222634 | 11 | 60 | 0.0 | 11.3 | 0.00 | 0.08 | 0.08 | 56 | 1010.3 |
| 20260507222130 | 11 | 42 | 1.6 | 22.5 | 0.00 | 0.08 | 0.08 | 54 | 1010.4 |
| 20260507221626 | 11 | 21 | 3.2 | 6.4 | 0.00 | 0.08 | 0.08 | 58 | 1010.1 |
| 20260507221123 | 11 | 55 | 3.2 | 6.4 | 0.00 | 0.08 | 0.08 | 54 | 1010.2 |
| 20260507220620 | 11 | 154 | 4.8 | 4.8 | 0.00 | 0.08 | 0.08 | 60 | 1010.3 |
| 20260507220118 | 11 | 128 | 3.2 | 6.4 | 0.00 | 0.08 | 0.08 | 59 | 1010.1 |
| 20260507215613 | 11 | 58 | 1.6 | 6.4 | 0.00 | 0.08 | 0.08 | 56 | 1010.0 |
| 20260507215112 | 12 | 134 | 8.0 | 9.7 | 0.00 | 0.08 | 0.08 | 58 | 1010.0 |
| 20260507214609 | 12 | 6 | 0.0 | 8.0 | 0.00 | 0.08 | 0.08 | 54 | 1009.9 |
| 20260507214104 | 12 | 33 | 3.2 | 6.4 | 0.00 | 0.08 | 0.08 | 54 | 1010.0 |
| 20260507213601 | 11 | 151 | 3.2 | 6.4 | 0.00 | 0.08 | 0.08 | 56 | 1009.9 |
| 20260507213058 | 12 | 53 | 4.8 | 14.5 | 0.00 | 0.08 | 0.08 | 51 | 1010.0 |
| 20260507212554 | 12 | 122 | 0.0 | 6.4 | 0.00 | 0.08 | 0.08 | 55 | 1009.9 |
| 20260507212051 | 12 | 124 | 3.2 | 9.7 | 0.00 | 0.08 | 0.08 | 59 | 1009.8 |
| 20260507211548 | 12 | 136 | 4.8 | 11.3 | 0.00 | 0.08 | 0.08 | 58 | 1009.7 |
| 20260507211044 | 12 | 59 | 3.2 | 14.5 | 0.00 | 0.08 | 0.08 | 53 | 1009.7 |
| 20260507210541 | 12 | 115 | 3.2 | 12.9 | 0.00 | 0.08 | 0.08 | 49 | 1009.8 |
| 20260507210038 | 12 | 40 | 3.2 | 11.3 | 0.00 | 0.08 | 0.08 | 54 | 1010.1 |
| 20260507205535 | 13 | 82 | 1.6 | 14.5 | 0.00 | 0.08 | 0.08 | 52 | 1009.5 |
| 20260507205031 | 14 | 285 | 1.6 | 16.1 | 0.00 | 0.08 | 0.08 | 46 | 1009.7 |
| 20260507204527 | 15 | 122 | 4.8 | 17.7 | 0.00 | 0.08 | 0.08 | 51 | 1010.0 |
| 20260507204025 | 15 | 35 | 4.8 | 8.0 | 0.00 | 0.08 | 0.08 | 50 | 1009.8 |
| 20260507203523 | 14 | 163 | 6.4 | 11.3 | 0.00 | 0.08 | 0.08 | 54 | 1009.8 |
| 20260507203020 | 14 | 149 | 8.0 | 14.5 | 0.00 | 0.08 | 0.08 | 53 | 1009.9 |
| 20260507202515 | 15 | 55 | 4.8 | 8.0 | 0.00 | 0.08 | 0.08 | 54 | 1009.7 |
| 20260507202012 | 14 | 165 | 6.4 | 11.3 | 0.00 | 0.08 | 0.08 | 56 | 1009.8 |
| 20260507201508 | 14 | 60 | 1.6 | 17.7 | 0.00 | 0.08 | 0.08 | 48 | 1010.0 |
| 20260507201004 | 14 | 156 | 14.5 | 14.5 | 0.00 | 0.08 | 0.08 | 55 | 1009.9 |
| 20260507200459 | 15 | 348 | 3.2 | 9.7 | 0.00 | 0.08 | 0.08 | 46 | 1010.0 |
| 20260507195955 | 13 | 19 | 1.6 | 6.4 | 0.00 | 0.08 | 0.08 | 54 | 1010.1 |
| 20260507195453 | 14 | 142 | 3.2 | 6.4 | 0.00 | 0.08 | 0.08 | 61 | 1010.2 |
| 20260507194950 | 14 | 137 | 4.8 | 11.3 | 0.00 | 0.08 | 0.08 | 48 | 1010.3 |
| 20260507194447 | 15 | 245 | 1.6 | 8.0 | 0.00 | 0.08 | 0.08 | 52 | 1010.0 |
| 20260507193942 | 15 | 46 | 3.2 | 20.9 | 0.00 | 0.08 | 0.08 | 55 | 1009.9 |
| 20260507193440 | 16 | 113 | 4.8 | 17.7 | 0.00 | 0.08 | 0.08 | 44 | 1010.3 |
| 20260507192937 | 15 | 144 | 9.7 | 9.7 | 0.00 | 0.08 | 0.08 | 50 | 1010.2 |
| 20260507192432 | 15 | 154 | 4.8 | 8.0 | 0.00 | 0.08 | 0.08 | 57 | 1010.4 |
| 20260507191930 | 14 | 123 | 6.4 | 9.7 | 0.00 | 0.08 | 0.08 | 48 | 1010.3 |
| 20260507191426 | 15 | 150 | 4.8 | 9.7 | 0.00 | 0.08 | 0.08 | 49 | 1010.2 |
| 20260507190922 | 13 | 23 | 6.4 | 16.1 | 0.00 | 0.08 | 0.08 | 54 | 1010.3 |
| 20260507190420 | 15 | 16 | 3.2 | 6.4 | 0.00 | 0.08 | 0.08 | 51 | 1010.0 |
| 20260507185919 | 15 | 266 | 0.0 | 11.3 | 0.00 | 0.08 | 0.08 | 61 | 1010.3 |
| 20260507185416 | 15 | 159 | 4.8 | 14.5 | 0.00 | 0.08 | 0.08 | 55 | 1010.2 |
| 20260507184913 | 14 | 158 | 0.0 | 11.3 | 0.00 | 0.08 | 0.08 | 51 | 1010.1 |
| 20260507184410 | 14 | 71 | 9.7 | 24.1 | 0.00 | 0.08 | 0.08 | 50 | 1010.3 |
| 20260507183908 | 14 | 359 | 3.2 | 8.0 | 0.00 | 0.08 | 0.08 | 55 | 1010.5 |
| 20260507183405 | 13 | 102 | 4.8 | 6.4 | 0.00 | 0.08 | 0.08 | 55 | 1010.7 |
| 20260507182902 | 15 | 313 | 4.8 | 6.4 | 0.00 | 0.08 | 0.08 | 49 | 1010.6 |
| 20260507182357 | 15 | 146 | 4.8 | 8.0 | 0.00 | 0.08 | 0.08 | 57 | 1010.4 |
| 20260507181854 | 15 | 64 | 1.6 | 17.7 | 0.00 | 0.08 | 0.08 | 53 | 1010.3 |
| 20260507181350 | 15 | 342 | 4.8 | 8.0 | 0.00 | 0.08 | 0.08 | 59 | 1010.1 |
| 20260507180847 | 14 | 143 | 4.8 | 8.0 | 0.00 | 0.08 | 0.08 | 55 | 1010.2 |
| 20260507180344 | 15 | 150 | 6.4 | 14.5 | 0.00 | 0.08 | 0.08 | 51 | 1010.4 |
| 20260507175839 | 14 | 151 | 4.8 | 9.7 | 0.00 | 0.08 | 0.08 | 62 | 1010.4 |
| 20260507175337 | 13 | 313 | 0.0 | 6.4 | 0.00 | 0.08 | 0.08 | 56 | 1010.7 |
| 20260507174834 | 13 | 105 | 3.2 | 4.8 | 0.00 | 0.08 | 0.08 | 60 | 1010.6 |
| 20260507174331 | 12 | 108 | 1.6 | 9.7 | 0.00 | 0.08 | 0.08 | 58 | 1010.4 |
| 20260507173829 | 14 | 3 | 3.2 | 8.0 | 0.00 | 0.08 | 0.08 | 56 | 1010.7 |
| 20260507173326 | 14 | 20 | 1.6 | 8.0 | 0.00 | 0.08 | 0.08 | 55 | 1010.6 |
| 20260507172822 | 13 | 146 | 12.9 | 12.9 | 0.00 | 0.08 | 0.08 | 67 | 1010.6 |
| 20260507172319 | 13 | 328 | 3.2 | 17.7 | 0.00 | 0.08 | 0.08 | 55 | 1010.8 |
| 20260507171814 | 14 | 353 | 6.4 | 9.7 | 0.00 | 0.08 | 0.08 | 58 | 1010.7 |
| 20260507171312 | 14 | 143 | 6.4 | 11.3 | 0.00 | 0.08 | 0.08 | 60 | 1011.0 |
| 20260507170809 | 13 | 137 | 4.8 | 11.3 | 0.00 | 0.08 | 0.08 | 60 | 1011.0 |
| 20260507170305 | 13 | 152 | 4.8 | 16.1 | 0.00 | 0.08 | 0.08 | 61 | 1010.8 |
| 20260507165801 | 14 | 315 | 1.6 | 8.0 | 0.00 | 0.08 | 0.08 | 58 | 1011.0 |
| 20260507165257 | 14 | 167 | 4.8 | 8.0 | 0.00 | 0.08 | 0.08 | 62 | 1011.2 |
| 20260507164754 | 13 | 108 | 6.4 | 9.7 | 0.00 | 0.08 | 0.08 | 57 | 1011.0 |
| 20260507164251 | 13 | 0 | 3.2 | 9.7 | 0.00 | 0.08 | 0.08 | 60 | 1011.2 |
| 20260507163748 | 13 | 64 | 4.8 | 9.7 | 0.00 | 0.08 | 0.08 | 63 | 1011.4 |
| 20260507163246 | 13 | 338 | 1.6 | 4.8 | 0.00 | 0.08 | 0.08 | 59 | 1011.7 |
| 20260507162741 | 14 | 149 | 17.7 | 24.1 | 0.00 | 0.08 | 0.08 | 59 | 1011.3 |
| 20260507162237 | 13 | 0 | 3.2 | 12.9 | 0.00 | 0.08 | 0.08 | 55 | 1011.6 |
| 20260507161735 | 14 | 359 | 4.8 | 8.0 | 0.00 | 0.08 | 0.08 | 64 | 1011.7 |
| 20260507161231 | 13 | 3 | 4.8 | 8.0 | 0.00 | 0.08 | 0.08 | 63 | 1011.6 |
| 20260507160727 | 13 | 155 | 4.8 | 8.0 | 0.00 | 0.08 | 0.08 | 57 | 1011.7 |
| 20260507160223 | 12 | 87 | 1.6 | 11.3 | 0.00 | 0.08 | 0.08 | 59 | 1011.8 |
| 20260507155719 | 12 | 54 | 6.4 | 9.7 | 0.00 | 0.08 | 0.08 | 71 | 1011.7 |
| 20260507155216 | 13 | 78 | 6.4 | 8.0 | 0.00 | 0.08 | 0.08 | 63 | 1011.5 |
| 20260507154712 | 13 | 350 | 4.8 | 8.0 | 0.00 | 0.08 | 0.08 | 65 | 1011.7 |
| 20260507154210 | 13 | 354 | 6.4 | 8.0 | 0.00 | 0.08 | 0.08 | 66 | 1011.9 |
| 20260507153707 | 12 | 147 | 8.0 | 14.5 | 0.00 | 0.08 | 0.08 | 62 | 1011.7 |
| 20260507153203 | 13 | 143 | 3.2 | 11.3 | 0.00 | 0.08 | 0.08 | 57 | 1011.7 |
| 20260507152659 | 12 | 117 | 1.6 | 12.9 | 0.00 | 0.08 | 0.08 | 63 | 1011.9 |
| 20260507152155 | 12 | 138 | 3.2 | 12.9 | 0.00 | 0.08 | 0.08 | 66 | 1011.9 |
| 20260507151652 | 12 | 136 | 4.8 | 11.3 | 0.00 | 0.08 | 0.08 | 61 | 1011.8 |
| 20260507151148 | 12 | 177 | 3.2 | 8.0 | 0.00 | 0.08 | 0.08 | 66 | 1012.0 |
| 20260507150646 | 11 | 135 | 6.4 | 17.7 | 0.00 | 0.08 | 0.08 | 67 | 1012.3 |
| 20260507150142 | 11 | 143 | 12.9 | 19.3 | 0.00 | 0.08 | 0.08 | 66 | 1012.0 |
| 20260507145637 | 12 | 139 | 11.3 | 11.3 | 0.00 | 0.08 | 0.08 | 62 | 1011.9 |
| 20260507145135 | 11 | 133 | 1.6 | 8.0 | 0.00 | 0.08 | 0.08 | 70 | 1012.0 |
| 20260507144631 | 11 | 145 | 4.8 | 9.7 | 0.00 | 0.08 | 0.08 | 68 | 1012.1 |
| 20260507144130 | 12 | 166 | 3.2 | 14.5 | 0.00 | 0.08 | 0.08 | 66 | 1012.4 |
| 20260507143626 | 12 | 96 | 3.2 | 8.0 | 0.00 | 0.08 | 0.08 | 73 | 1012.3 |
| 20260507143123 | 12 | 145 | 1.6 | 4.8 | 0.00 | 0.08 | 0.08 | 78 | 1012.1 |
| 20260507142619 | 10 | 129 | 3.2 | 9.7 | 0.00 | 0.08 | 0.08 | 74 | 1012.6 |
| 20260507142116 | 11 | 207 | 4.8 | 11.3 | 0.00 | 0.08 | 0.08 | 74 | 1012.7 |
| 20260507141612 | 11 | 7 | 3.2 | 4.8 | 0.00 | 0.08 | 0.08 | 75 | 1012.6 |
| 20260507141109 | 10 | 155 | 4.8 | 8.0 | 0.00 | 0.08 | 0.08 | 74 | 1012.6 |
| 20260507140605 | 10 | 153 | 6.4 | 9.7 | 0.00 | 0.08 | 0.08 | 75 | 1012.7 |
| 20260507135600 | 10 | 109 | 0.0 | 4.8 | 0.00 | 0.08 | 0.08 | 79 | 1013.0 |
| 20260507135057 | 9 | 134 | 3.2 | 4.8 | 0.00 | 0.08 | 0.08 | 82 | 1012.9 |
| 20260507134553 | 8 | 331 | 3.2 | 9.7 | 0.00 | 0.08 | 0.08 | 83 | 1012.8 |
| 20260507134049 | 7 | 40 | 1.6 | 4.8 | 0.00 | 0.08 | 0.08 | 82 | 1012.9 |
| 20260507133546 | 7 | 23 | 0.0 | 8.0 | 0.00 | 0.08 | 0.08 | 77 | 1013.0 |
| 20260507133044 | 7 | 154 | 0.0 | 4.8 | 0.00 | 0.08 | 0.08 | 80 | 1012.9 |
| 20260507132540 | 7 | 72 | 1.6 | 8.0 | 0.00 | 0.08 | 0.08 | 79 | 1013.1 |
| 20260507132036 | 7 | 151 | 1.6 | 4.8 | 0.00 | 0.08 | 0.08 | 85 | 1013.0 |
| 20260507131533 | 7 | 138 | 0.0 | 6.4 | 0.00 | 0.08 | 0.08 | 85 | 1013.0 |
| 20260507131030 | 7 | 121 | 1.6 | 4.8 | 0.00 | 0.08 | 0.08 | 86 | 1012.8 |
| 20260507130527 | 7 | 151 | 3.2 | 8.0 | 0.00 | 0.08 | 0.08 | 86 | 1013.3 |
| 20260507130026 | 6 | 58 | 1.6 | 4.8 | 0.00 | 0.08 | 0.08 | 81 | 1013.3 |
| 20260507125524 | 7 | 116 | 1.6 | 4.8 | 0.00 | 0.08 | 0.08 | 87 | 1013.3 |
| 20260507125021 | 7 | 122 | 1.6 | 4.8 | 0.00 | 0.08 | 0.08 | 89 | 1013.0 |
| 20260507124517 | 7 | 101 | 0.0 | 6.4 | 0.00 | 0.08 | 0.08 | 90 | 1013.4 |
| 20260507124015 | 6 | 13 | 0.0 | 3.2 | 0.00 | 0.08 | 0.08 | 87 | 1013.3 |
| 20260507123513 | 6 | 105 | 1.6 | 4.8 | 0.00 | 0.08 | 0.08 | 84 | 1013.4 |
| 20260507123010 | 6 | 45 | 0.0 | 3.2 | 0.00 | 0.08 | 0.08 | 92 | 1013.2 |
| 20260507122504 | 6 | 328 | 0.0 | 3.2 | 0.00 | 0.08 | 0.08 | 94 | 1013.3 |
| 20260507122001 | 6 | 57 | 0.0 | 3.2 | 0.00 | 0.08 | 0.08 | 90 | 1013.3 |
| 20260507121456 | 6 | 137 | 3.2 | 4.8 | 0.00 | 0.08 | 0.08 | 95 | 1013.7 |
| 20260507120953 | 5 | 11 | 0.0 | 4.8 | 0.00 | 0.08 | 0.08 | 93 | 1013.2 |
| 20260507120449 | 5 | 30 | 0.0 | 3.2 | 0.00 | 0.08 | 0.08 | 95 | 1013.0 |
| 20260507115946 | 5 | 49 | 0.0 | 3.2 | 0.00 | 0.08 | 0.08 | 98 | 1013.1 |
| 20260507115442 | 5 | 102 | 0.0 | 3.2 | 0.00 | 0.08 | 0.08 | 99 | 1013.1 |
| 20260507114938 | 5 | 44 | 0.0 | 1.6 | 0.00 | 0.08 | 0.08 | 99 | 1013.2 |
| 20260507114434 | 5 | 89 | 0.0 | 3.2 | 0.00 | 0.08 | 0.08 | 99 | 1013.2 |
| 20260507113932 | 5 | 29 | 0.0 | 3.2 | 0.00 | 0.08 | 0.08 | 99 | 1012.8 |
| 20260507113429 | 5 | 27 | 1.6 | 3.2 | 0.00 | 0.08 | 0.08 | 99 | 1012.9 |
| 20260507112926 | 5 | 130 | 0.0 | 1.6 | 0.00 | 0.08 | 0.08 | 99 | 1012.9 |
| 20260507112424 | 5 | 55 | 0.0 | 3.2 | 0.00 | 0.08 | 0.08 | 99 | 1013.1 |
| 20260507111921 | 5 | 44 | 0.0 | 3.2 | 0.00 | 0.08 | 0.08 | 99 | 1013.1 |
| 20260507111418 | 5 | 38 | 0.0 | 1.6 | 0.00 | 0.08 | 0.08 | 99 | 1013.0 |
| 20260507110914 | 5 | 44 | 0.0 | 3.2 | 0.00 | 0.08 | 0.08 | 99 | 1012.9 |
| 20260507110410 | 5 | 38 | 0.0 | 3.2 | 0.00 | 0.08 | 0.08 | 99 | 1012.8 |
| 20260507105907 | 5 | 91 | 0.0 | 3.2 | 0.00 | 0.08 | 0.08 | 99 | 1012.7 |
| 20260507105403 | 5 | 22 | 0.0 | 1.6 | 0.00 | 0.08 | 0.08 | 99 | 1012.8 |
| 20260507104900 | 5 | 137 | 3.2 | 3.2 | 0.00 | 0.08 | 0.08 | 99 | 1012.7 |
| 20260507104357 | 5 | 93 | 1.6 | 3.2 | 0.00 | 0.08 | 0.08 | 99 | 1012.4 |
| 20260507103853 | 5 | 22 | 0.0 | 3.2 | 0.00 | 0.08 | 0.08 | 99 | 1012.6 |
| 20260507103350 | 5 | 113 | 1.6 | 3.2 | 0.00 | 0.08 | 0.08 | 99 | 1012.5 |
| 20260507102846 | 5 | 32 | 0.0 | 3.2 | 0.00 | 0.08 | 0.08 | 99 | 1012.4 |
| 20260507102343 | 5 | 35 | 1.6 | 3.2 | 0.00 | 0.08 | 0.08 | 99 | 1012.3 |
| 20260507101839 | 5 | 100 | 1.6 | 3.2 | 0.00 | 0.08 | 0.08 | 99 | 1012.3 |
| 20260507101333 | 5 | 52 | 0.0 | 1.6 | 0.00 | 0.08 | 0.08 | 99 | 1012.4 |
| 20260507100831 | 5 | 22 | 0.0 | 1.6 | 0.00 | 0.08 | 0.08 | 99 | 1012.3 |
| 20260507100329 | 5 | 27 | 0.0 | 3.2 | 0.00 | 0.08 | 0.08 | 99 | 1012.1 |
| 20260507095827 | 5 | 22 | 0.0 | 1.6 | 0.00 | 0.08 | 0.08 | 99 | 1012.3 |
| 20260507095323 | 5 | 52 | 0.0 | 3.2 | 0.00 | 0.08 | 0.08 | 99 | 1011.9 |
| 20260507094820 | 5 | 44 | 0.0 | 3.2 | 0.00 | 0.08 | 0.08 | 99 | 1011.9 |
| 20260507094316 | 5 | 92 | 1.6 | 3.2 | 0.00 | 0.08 | 0.08 | 99 | 1011.9 |
| 20260507093813 | 5 | 62 | 1.6 | 3.2 | 0.00 | 0.08 | 0.08 | 99 | 1011.9 |
| 20260507093312 | 5 | 97 | 1.6 | 3.2 | 0.00 | 0.08 | 0.08 | 99 | 1012.1 |
| 20260507092810 | 5 | 45 | 0.0 | 3.2 | 0.00 | 0.08 | 0.08 | 99 | 1012.1 |
| 20260507092307 | 5 | 55 | 0.0 | 1.6 | 0.00 | 0.08 | 0.08 | 99 | 1012.4 |
| 20260507091802 | 5 | 120 | 1.6 | 4.8 | 0.00 | 0.08 | 0.08 | 99 | 1012.1 |
| 20260507091259 | 5 | 87 | 1.6 | 3.2 | 0.00 | 0.08 | 0.08 | 99 | 1012.4 |
| 20260507090759 | 5 | 76 | 0.0 | 3.2 | 0.00 | 0.08 | 0.08 | 99 | 1012.4 |
| 20260507090256 | 5 | 119 | 0.0 | 4.8 | 0.00 | 0.08 | 0.08 | 99 | 1011.8 |
| 20260507085753 | 5 | 141 | 3.2 | 4.8 | 0.00 | 0.08 | 0.08 | 99 | 1011.9 |
| 20260507085250 | 5 | 119 | 0.0 | 3.2 | 0.00 | 0.08 | 0.08 | 99 | 1012.0 |
| 20260507084747 | 5 | 139 | 3.2 | 4.8 | 0.00 | 0.08 | 0.08 | 99 | 1012.0 |
| 20260507084243 | 5 | 65 | 0.0 | 3.2 | 0.00 | 0.08 | 0.08 | 99 | 1012.0 |
| 20260507083741 | 5 | 118 | 1.6 | 3.2 | 0.00 | 0.08 | 0.08 | 99 | 1011.9 |
| 20260507083237 | 5 | 135 | 0.0 | 3.2 | 0.00 | 0.08 | 0.08 | 99 | 1012.1 |
| 20260507082733 | 5 | 103 | 3.2 | 4.8 | 0.00 | 0.08 | 0.08 | 99 | 1012.3 |
| 20260507082229 | 5 | 51 | 1.6 | 3.2 | 0.05 | 0.08 | 0.08 | 99 | 1012.1 |
| 20260507081726 | 5 | 147 | 0.0 | 3.2 | 0.05 | 0.08 | 0.08 | 99 | 1012.3 |
| 20260507081222 | 5 | 353 | 1.6 | 6.4 | 0.05 | 0.05 | 0.05 | 99 | 1012.3 |
| 20260507080719 | 5 | 89 | 0.0 | 3.2 | 0.05 | 0.05 | 0.05 | 99 | 1012.0 |
| 20260507080215 | 6 | 140 | 0.0 | 4.8 | 0.13 | 0.05 | 0.05 | 99 | 1012.3 |
| 20260507075711 | 6 | 77 | 1.6 | 4.8 | 0.05 | 0.05 | 0.05 | 99 | 1012.0 |
| 20260507075208 | 6 | 322 | 3.2 | 4.8 | 0.05 | 0.03 | 0.03 | 99 | 1012.1 |
| 20260507074703 | 6 | 132 | 0.0 | 3.2 | 0.05 | 0.03 | 0.03 | 99 | 1011.9 |
| 20260507074202 | 6 | 35 | 3.2 | 3.2 | 0.00 | 0.03 | 0.03 | 99 | 1011.9 |
| 20260507073658 | 6 | 141 | 3.2 | 4.8 | 0.00 | 0.03 | 0.03 | 99 | 1011.7 |
| 20260507073154 | 6 | 128 | 3.2 | 4.8 | 0.00 | 0.03 | 0.03 | 99 | 1011.9 |
| 20260507072653 | 6 | 153 | 0.0 | 4.8 | 0.00 | 0.03 | 0.03 | 99 | 1011.9 |
| 20260507072150 | 6 | 154 | 0.0 | 3.2 | 0.00 | 0.03 | 0.03 | 99 | 1011.8 |
| 20260507071647 | 6 | 94 | 1.6 | 1.6 | 0.00 | 0.03 | 0.03 | 99 | 1011.9 |
| 20260507071143 | 6 | 116 | 0.0 | 3.2 | 0.00 | 0.03 | 0.03 | 99 | 1011.7 |
| 20260507070640 | 6 | 148 | 0.0 | 3.2 | 0.00 | 0.03 | 0.03 | 99 | 1012.0 |
| 20260507070137 | 6 | 49 | 0.0 | 1.6 | 0.00 | 0.03 | 0.03 | 99 | 1011.9 |
| 20260507065633 | 6 | 47 | 0.0 | 1.6 | 0.00 | 0.03 | 0.03 | 99 | 1011.9 |
| 20260507065130 | 6 | 76 | 0.0 | 1.6 | 0.00 | 0.03 | 0.03 | 99 | 1011.8 |
| 20260507064628 | 6 | 71 | 0.0 | 1.6 | 0.00 | 0.03 | 0.03 | 99 | 1011.9 |
| 20260507064127 | 6 | 134 | 3.2 | 3.2 | 0.00 | 0.03 | 0.03 | 99 | 1011.9 |
| 20260507063624 | 6 | 124 | 1.6 | 3.2 | 0.00 | 0.03 | 0.03 | 99 | 1012.1 |
| 20260507063121 | 6 | 55 | 0.0 | 1.6 | 0.00 | 0.03 | 0.03 | 99 | 1012.0 |
| 20260507062617 | 6 | 122 | 0.0 | 3.2 | 0.00 | 0.03 | 0.03 | 99 | 1012.1 |
| 20260507062115 | 6 | 124 | 1.6 | 4.8 | 0.05 | 0.03 | 0.03 | 99 | 1012.3 |
| 20260507061613 | 6 | 69 | 0.0 | 3.2 | 0.05 | 0.03 | 0.03 | 99 | 1012.4 |
| 20260507061111 | 6 | 132 | 3.2 | 4.8 | 0.00 | 0.00 | 0.00 | 99 | 1012.1 |
| 20260507060609 | 6 | 143 | 3.2 | 4.8 | 0.00 | 0.00 | 0.00 | 99 | 1012.3 |
| 20260507060105 | 6 | 141 | 4.8 | 4.8 | 0.00 | 0.00 | 0.00 | 99 | 1012.3 |
| 20260507055600 | 6 | 19 | 0.0 | 1.6 | 0.00 | 0.00 | 0.00 | 99 | 1012.5 |
| 20260507055056 | 6 | 138 | 1.6 | 3.2 | 0.00 | 0.00 | 0.00 | 99 | 1012.3 |
| 20260507054552 | 6 | 32 | 0.0 | 3.2 | 0.00 | 0.00 | 0.00 | 99 | 1012.4 |
| 20260507054049 | 6 | 138 | 3.2 | 4.8 | 0.00 | 0.00 | 0.00 | 99 | 1012.5 |
| 20260507053547 | 6 | 130 | 1.6 | 4.8 | 0.00 | 0.00 | 0.00 | 99 | 1012.5 |
| 20260507053046 | 6 | 102 | 0.0 | 3.2 | 0.00 | 0.00 | 0.00 | 99 | 1012.7 |
| 20260507052543 | 6 | 130 | 3.2 | 3.2 | 0.00 | 0.00 | 0.00 | 99 | 1012.5 |
| 20260507052040 | 6 | 130 | 6.4 | 6.4 | 0.00 | 0.00 | 0.00 | 99 | 1012.6 |
| 20260507051537 | 6 | 25 | 0.0 | 1.6 | 0.00 | 0.00 | 0.00 | 99 | 1012.6 |
| 20260507051034 | 6 | 128 | 1.6 | 3.2 | 0.00 | 0.00 | 0.00 | 99 | 1012.8 |
| 20260507050530 | 6 | 156 | 0.0 | 3.2 | 0.00 | 0.00 | 0.00 | 99 | 1012.9 |
| 20260507050027 | 6 | 135 | 1.6 | 4.8 | 0.00 | 0.00 | 0.00 | 99 | 1012.8 |
| 20260507045524 | 6 | 38 | 0.0 | 4.8 | 0.00 | 0.00 | 0.00 | 99 | 1012.9 |
| 20260507045021 | 6 | 46 | 0.0 | 3.2 | 0.00 | 0.00 | 0.00 | 99 | 1012.8 |
| 20260507044518 | 6 | 40 | 0.0 | 3.2 | 0.00 | 0.00 | 0.00 | 99 | 1012.4 |
| 20260507044014 | 6 | 89 | 0.0 | 3.2 | 0.00 | 0.00 | 0.00 | 99 | 1012.6 |
| 20260507043511 | 6 | 107 | 0.0 | 4.8 | 0.00 | 0.00 | 0.00 | 99 | 1012.7 |
| 20260507043008 | 6 | 7 | 1.6 | 6.4 | 0.00 | 0.00 | 0.00 | 99 | 1012.7 |
| 20260507042504 | 6 | 68 | 1.6 | 4.8 | 0.00 | 0.00 | 0.00 | 99 | 1012.8 |
| 20260507041959 | 6 | 12 | 0.0 | 4.8 | 0.00 | 0.00 | 0.00 | 99 | 1012.5 |
| 20260507041457 | 6 | 127 | 1.6 | 3.2 | 0.05 | 0.00 | 0.00 | 99 | 1012.5 |
| 20260507040953 | 6 | 124 | 3.2 | 3.2 | 0.05 | 0.00 | 0.00 | 99 | 1012.5 |
| 20260507040449 | 6 | 77 | 1.6 | 4.8 | 0.00 | 0.00 | 0.00 | 99 | 1012.6 |
| 20260507035945 | 6 | 46 | 3.2 | 4.8 | 0.05 | 1.32 | 1.32 | 99 | 1012.8 |
| 20260507035442 | 7 | 124 | 0.0 | 3.2 | 0.05 | 1.32 | 1.32 | 99 | 1012.6 |
| 20260507034939 | 7 | 83 | 0.0 | 3.2 | 0.13 | 1.32 | 1.32 | 99 | 1012.5 |
| 20260507034436 | 7 | 17 | 0.0 | 3.2 | 0.13 | 1.32 | 1.32 | 99 | 1012.7 |
| 20260507033934 | 7 | 104 | 4.8 | 4.8 | 0.13 | 1.30 | 1.30 | 99 | 1012.6 |
| 20260507033431 | 7 | 129 | 0.0 | 9.7 | 0.05 | 1.30 | 1.30 | 99 | 1012.7 |
| 20260507032928 | 7 | 57 | 0.0 | 4.8 | 0.00 | 1.27 | 1.27 | 99 | 1012.7 |
| 20260507032425 | 7 | 9 | 0.0 | 3.2 | 0.00 | 1.27 | 1.27 | 99 | 1012.6 |
| 20260507031921 | 7 | 22 | 0.0 | 3.2 | 0.05 | 1.27 | 1.27 | 99 | 1012.7 |
| 20260507031418 | 7 | 27 | 0.0 | 3.2 | 0.00 | 1.27 | 1.27 | 99 | 1013.1 |
| 20260507030914 | 7 | 58 | 1.6 | 3.2 | 0.05 | 1.27 | 1.27 | 99 | 1013.1 |
| 20260507030412 | 7 | 44 | 0.0 | 3.2 | 0.05 | 1.27 | 1.27 | 99 | 1012.9 |
| 20260507025909 | 7 | 22 | 0.0 | 4.8 | 0.05 | 1.27 | 1.27 | 99 | 1012.8 |
| 20260507025406 | 7 | 144 | 0.0 | 3.2 | 0.13 | 1.27 | 1.27 | 99 | 1012.0 |
| 20260507024904 | 7 | 143 | 1.6 | 3.2 | 0.13 | 1.24 | 1.24 | 99 | 1012.1 |
| 20260507024401 | 7 | 31 | 4.8 | 4.8 | 0.05 | 1.24 | 1.24 | 99 | 1012.6 |
| 20260507023857 | 7 | 120 | 1.6 | 3.2 | 0.00 | 1.22 | 1.22 | 99 | 1012.8 |
| 20260507023353 | 7 | 44 | 0.0 | 3.2 | 0.05 | 1.22 | 1.22 | 99 | 1013.1 |
| 20260507022851 | 7 | 76 | 3.2 | 4.8 | 0.00 | 1.22 | 1.22 | 99 | 1012.3 |
| 20260507022347 | 7 | 134 | 3.2 | 4.8 | 0.05 | 1.22 | 1.22 | 99 | 1012.6 |
| 20260507021843 | 8 | 108 | 0.0 | 6.4 | 0.05 | 1.22 | 1.22 | 99 | 1012.6 |
| 20260507021339 | 8 | 354 | 0.0 | 4.8 | 0.00 | 1.22 | 1.22 | 99 | 1012.5 |
| 20260507020837 | 8 | 136 | 4.8 | 6.4 | 0.05 | 1.22 | 1.22 | 99 | 1012.3 |
| 20260507020333 | 8 | 114 | 3.2 | 6.4 | 0.05 | 1.22 | 1.22 | 99 | 1012.1 |
| 20260507015830 | 8 | 117 | 1.6 | 4.8 | 0.00 | 1.19 | 1.19 | 99 | 1012.4 |
| 20260507015328 | 8 | 23 | 3.2 | 8.0 | 0.05 | 1.19 | 1.19 | 99 | 1012.0 |
| 20260507014825 | 8 | 57 | 0.0 | 3.2 | 0.00 | 1.19 | 1.19 | 99 | 1011.8 |
| 20260507014321 | 8 | 122 | 1.6 | 4.8 | 0.00 | 1.19 | 1.19 | 99 | 1012.0 |
| 20260507013818 | 8 | 62 | 0.0 | 3.2 | 0.00 | 1.19 | 1.19 | 99 | 1011.9 |
| 20260507013315 | 8 | 89 | 0.0 | 3.2 | 0.00 | 1.19 | 1.19 | 99 | 1012.1 |
| 20260507012813 | 8 | 299 | 0.0 | 6.4 | 0.00 | 1.19 | 1.19 | 99 | 1012.0 |
| 20260507012308 | 8 | 50 | 0.0 | 3.2 | 0.00 | 1.19 | 1.19 | 99 | 1012.1 |
| 20260507011806 | 8 | 96 | 1.6 | 6.4 | 0.00 | 1.19 | 1.19 | 99 | 1011.8 |
| 20260507011302 | 8 | 332 | 3.2 | 4.8 | 0.00 | 1.19 | 1.19 | 99 | 1011.9 |
| 20260507010801 | 8 | 120 | 3.2 | 8.0 | 0.00 | 1.19 | 1.19 | 99 | 1011.8 |
| 20260507010258 | 8 | 132 | 6.4 | 8.0 | 0.00 | 1.19 | 1.19 | 99 | 1011.6 |
| 20260507005755 | 8 | 326 | 0.0 | 4.8 | 0.00 | 1.19 | 1.19 | 99 | 1011.9 |
| 20260507005252 | 8 | 52 | 0.0 | 3.2 | 0.00 | 1.19 | 1.19 | 99 | 1011.6 |
| 20260507004748 | 8 | 44 | 0.0 | 4.8 | 0.00 | 1.19 | 1.19 | 99 | 1011.5 |
| 20260507004246 | 8 | 105 | 3.2 | 6.4 | 0.00 | 1.19 | 1.19 | 99 | 1011.8 |
| 20260507003742 | 8 | 144 | 1.6 | 4.8 | 0.00 | 1.19 | 1.19 | 99 | 1011.6 |
| 20260507003237 | 9 | 119 | 0.0 | 6.4 | 0.00 | 1.19 | 1.19 | 99 | 1011.3 |
| 20260507002734 | 8 | 62 | 1.6 | 3.2 | 0.00 | 1.19 | 1.19 | 99 | 1010.8 |
| 20260507002230 | 9 | 137 | 4.8 | 6.4 | 0.00 | 1.19 | 1.19 | 99 | 1011.4 |
| 20260507001727 | 8 | 57 | 0.0 | 6.4 | 0.00 | 1.19 | 1.19 | 99 | 1011.7 |
| 20260507001224 | 9 | 38 | 0.0 | 4.8 | 0.00 | 1.19 | 1.19 | 99 | 1011.8 |
| 20260507000720 | 9 | 112 | 4.8 | 4.8 | 0.00 | 1.19 | 1.19 | 99 | 1011.9 |
| 20260507000216 | 9 | 57 | 0.0 | 4.8 | 0.00 | 1.19 | 1.19 | 99 | 1012.3 |
| 20260506235713 | 9 | 57 | 3.2 | 6.4 | 0.00 | 1.19 | 1.19 | 99 | 1011.9 |
| 20260506235208 | 9 | 128 | 4.8 | 6.4 | 0.00 | 1.19 | 1.19 | 99 | 1011.8 |
| 20260506234706 | 9 | 84 | 1.6 | 6.4 | 0.00 | 1.19 | 1.19 | 99 | 1011.7 |
| 20260506234203 | 9 | 58 | 3.2 | 4.8 | 0.00 | 1.19 | 1.19 | 99 | 1011.5 |
| 20260506233700 | 9 | 319 | 0.0 | 4.8 | 0.00 | 1.19 | 1.19 | 99 | 1011.5 |
| 20260506233157 | 9 | 55 | 0.0 | 9.7 | 0.00 | 1.19 | 1.19 | 99 | 1011.7 |
| 20260506232653 | 10 | 66 | 3.2 | 3.2 | 0.00 | 1.19 | 1.19 | 99 | 1011.6 |
| 20260506232148 | 10 | 148 | 1.6 | 4.8 | 0.00 | 1.19 | 1.19 | 99 | 1011.8 |